Regional Weather Roundup
Issued by NWS

Home | Current Version | Previous Version | Text Only | Print | Product List | Glossary Off
Versions: 1 2 3 4 5 6 7 8 9 10 11 12 13 14 15 16 17 18 19 20 21 22 23 24 25 26 27 28 29 30 31 32 33 34 35 36 37 38 39 40 41 42 43 44 45 46 47 48 49 50

786
ASUS43 KDMX 121503
RWRIA

WEATHER ROUNDUP FOR IOWA
NATIONAL WEATHER SERVICE DES MOINES IA
900 AM CST FRI FEB 12 2016

NOTE: "FAIR" INDICATES FEW OR NO CLOUDS BELOW 12,000 FEET WITH NO
SIGNIFICANT WEATHER AND/OR OBSTRUCTIONS TO VISIBILITY.

* - THESE STATIONS ARE NOT NWS STATIONS...THUS NOT UNDER NWS
QUALITY CONTROL.  THEY ALSO DO NOT REPORT WEATHER SUCH
AS PRECIPITATION OR FOG.

IAZ001>003-012>014-020>022-031>034-043>046-121600-
   NORTHWEST IOWA

CITY           SKY/WX    TMP DP  RH WIND       PRES   REMARKS
CARROLL *      MOSUNNY   16  10  79 N18       30.40R WCI  -1
CHEROKEE *     MOSUNNY   15  10  80 N13       30.43R WCI   0
DENISON *      CLOUDY    18  12  79 N14       30.39R WCI   4
LE MARS *      CLOUDY    16  12  86 N12       30.46R WCI   3
ORANGE CITY *  MOSUNNY   14   9  79 N12G17    30.43R WCI   0
SHELDON *      PTSUNNY   10   5  79 N12       30.42R WCI  -4
SIOUX CITY     CLOUDY    21  10  62 N17       30.45R WCI   7
SPENCER        CLOUDY    11   4  73 N17       30.42R WCI  -6
STORM LAKE *   SUNNY     12   9  85 N10       30.40R WCI  -1
$$

IAZ055>058-069>071-079>083-090>094-121600-
   SOUTHWEST IOWA

CITY           SKY/WX    TMP DP  RH WIND       PRES   REMARKS
ATLANTIC *     CLOUDY    21  14  73 N14G20    30.40R WCI   8
AUDUBON *      FLURRIES  18  12  79 N15       30.38R WCI   3
CLARINDA *     CLOUDY    23  18  80 N17       30.42R WCI   9
COUNCIL BLFS * CLOUDY    21  16  79 N12       30.41R WCI   9
CRESTON *      CLOUDY    21  14  73 N13G21    30.37R WCI   9
HARLAN  *      CLOUDY    19  14  79 N15       30.43R WCI   5
LAMONI         CLOUDY    20  14  77 N18G26    30.35R WCI   5
RED OAK *      CLOUDY    23  18  80 N14G21    30.43R WCI  11
SHENANDOAH *   PTSUNNY   23  19  86 N15G21    30.44R WCI  10
$$

IAZ047>049-059>061-072>074-084-121600-
   CENTRAL IOWA

CITY           SKY/WX    TMP DP  RH WIND       PRES   REMARKS
AMES           SUNNY     16  11  80 N20G32    30.37R WCI  -1
ANKENY *       CLOUDY    19  12  73 NW17G24   30.38R WCI   4
BOONE *        PTSUNNY   16  10  79 NW16G23   30.36R WCI   0
CHARITON *     CLOUDY    19  12  73 NW16      30.34R WCI   5
DES MOINES     MOSUNNY   20  12  71 NW12      30.37R WCI   8
GRINNELL*      FLURRIES  18  14  86 NW17G25   30.32R WCI   2
KNOXVILLE *    FLURRIES  19  12  73 N15       30.34R WCI   5
MARSHALLTOWN   CLOUDY    17  12  80 NW16      30.33R WCI   2
NEWTON *       FLURRIES  18  14  86 NW20      30.34R WCI   1
PELLA *        LGT SNOW  19  14  81 NW15      30.36R WCI   5
$$

IAZ004>006-015-016-023>025-035-036-121600-
   NORTH CENTRAL IOWA

CITY           SKY/WX    TMP DP  RH WIND       PRES   REMARKS
ALGONA *       PTSUNNY   12   7  79 NW23G29   30.38R WCI  -7
CLARION *      PTSUNNY   12   5  73 NW24      30.36R WCI  -8
ESTHERVILLE    SUNNY      9   4  80 NW25G31   30.40R HAZE    WCI -12
FORT DODGE *   SUNNY     14   7  73 NW9G16    30.40R WCI   2
MASON CITY     LGT SNOW  10   5  80 NW23G30   30.34R WCI -10
FOREST CITY *    N/A     12   5  73 NW17      30.34R WCI  -5
WEBSTER CITY * LGT SNOW  14  10  85 NW18      30.35R WCI  -3
IOWA FALLS *   PTSUNNY   16  10  79 NW18      30.34R FOG     WCI  -1
$$

IAZ007>011-017>019-026>030-037>042-050>054-066-121600-
   NORTHEAST IOWA

CITY           SKY/WX    TMP DP  RH WIND       PRES   REMARKS
CEDAR RAPIDS   CLOUDY    17  12  80 NW21G26   30.28R WCI   0
CHARLES CITY * CLOUDY    12   7  79 NW23      30.29S WCI  -7
CLINTON *      FLURRIES  18  13  80 NW22      30.25R WCI   1
DECORAH *      CLOUDY    12   5  73 NW14G20   30.24R WCI  -3
DUBUQUE        MOSUNNY   15   8  73 NW13      30.22R WCI   1
MONTICELLO *   CLOUDY    18  10  73 NW13      30.26R WCI   4
OELWEIN *      FLURRIES  14   9  79 NW17      30.27S WCI  -3
WATERLOO       SUNNY     15   8  73 NW18      30.30R WCI  -2
$$

IAZ064-065-067-068-078-121600-
   EAST CENTRAL IOWA

CITY           SKY/WX    TMP DP  RH WIND       PRES   REMARKS
DAVENPORT      LGT SNOW  19  12  74 NW16G25   30.25R WCI   4
IOWA CITY      CLOUDY    19  12  74 N18G26    30.31S WCI   4
MT. PLEASANT * LGT SNOW  24  20  83 NW16      30.29R WCI  11
MUSCATINE *    LGT SNOW  21  16  79 NW17      30.29R WCI   7
QUAD CITIES    LGT SNOW  21  14  74 NW22G32   30.25R WCI   5
$$

IAZ062-063-075>077-085>089-095>099-121600-
   SOUTHEAST IOWA

CITY           SKY/WX    TMP DP  RH WIND       PRES   REMARKS
BURLINGTON     CLOUDY    22  18  85 NW15G22   30.27R WCI   9
FAIRFIELD *    FLURRIES  21  16  79 NW16G23   30.31R WCI   7
FORT MADISON * CLOUDY    21  19  93 NW16      30.28R WCI   7
KEOKUK *       CLOUDY    23  19  86 NW10      30.28S WCI  12
OSKALOOSA *    CLOUDY    19  16  86 NW18G25   30.33R WCI   4
OTTUMWA        CLOUDY    20  15  81 NW20G29   30.33R WCI   4
WASHINGTON *   FLURRIES  19  16  86 NW17G25   30.31R WCI   4
$$

ABBREVIATIONS USED IN REMARKS
   TC - TEMPERATURES IN CELSIUS
  WCI - WIND CHILL INDEX
   HX - HEAT INDEX
  VSB - VISIBILITY
$$





USA.gov is the U.S. government's official web portal to all federal, state and local government web resources and services.